| time (UTC) | temp F | wind direction | speed MPH | gust MPH | rain 1hr in | rain 24hr in | rain mn in | humidity % | barometer mb |
| 20260903143107 | 71 | 0 | 1.0 | 3.0 | 0.04 | 0.41 | 0.41 | 92 | 1016.2 |
| 20260903141604 | 70 | 316 | 0.0 | 3.0 | 0.04 | 0.41 | 0.41 | 94 | 1016.1 |
| 20260903140114 | 67 | 0 | 1.0 | 5.0 | 0.04 | 0.41 | 0.41 | 91 | 1015.8 |
| 20260903134603 | 68 | 229 | 2.0 | 14.0 | 0.04 | 0.40 | 0.40 | 91 | 1016.5 |
| 20260903133118 | 68 | 19 | 2.0 | 8.0 | 0.01 | 0.37 | 0.37 | 92 | 1017.1 |
| 20260903131611 | 68 | 0 | 0.0 | 3.0 | 0.03 | 0.37 | 0.37 | 93 | 1016.5 |
| 20260903130105 | 67 | 0 | 0.0 | 1.0 | 0.03 | 0.37 | 0.37 | 92 | 1016.2 |
| 20260903124615 | 67 | 0 | 0.0 | 2.0 | 0.02 | 0.36 | 0.36 | 91 | 1016.2 |
| 20260903123108 | 67 | 79 | 0.0 | 3.0 | 0.02 | 0.36 | 0.36 | 92 | 1016.9 |
| 20260903121602 | 0 | 0.0 | 0.0 | 0.00 | 0.34 | 0.34 | 1017.4 | ||
| 20260903120106 | 67 | 39 | 0.0 | 2.0 | 0.14 | 0.31 | 0.31 | 91 | 1016.8 |
| 20260903114607 | 67 | 38 | 1.0 | 4.0 | 0.25 | 0.27 | 0.27 | 91 | 1016.6 |
| 20260903113106 | 67 | 91 | 0.0 | 1.0 | 0.24 | 0.26 | 0.26 | 90 | 1016.8 |
| 20260903111601 | 67 | 0 | 0.0 | 2.0 | 0.20 | 0.22 | 0.22 | 90 | 1017.2 |
| 20260903104603 | 67 | 164 | 2.0 | 12.0 | 0.00 | 0.01 | 0.01 | 90 | 1017.5 |
| 20260903103105 | 67 | 337 | 2.0 | 4.0 | 0.00 | 0.01 | 0.01 | 90 | 1015.8 |
| 20260903101605 | 67 | 16 | 1.0 | 4.0 | 0.00 | 0.01 | 0.01 | 90 | 1015.1 |
| 20260903100106 | 67 | 5 | 1.0 | 3.0 | 0.00 | 0.01 | 0.01 | 89 | 1015.2 |
| 20260903094655 | 67 | 5 | 2.0 | 3.0 | 0.00 | 0.01 | 0.01 | 90 | 1015.1 |
| 20260903093105 | 67 | 360 | 1.0 | 3.0 | 0.00 | 0.01 | 0.01 | 89 | 1015.1 |
| 20260903091606 | 67 | 0 | 0.0 | 3.0 | 0.00 | 0.01 | 0.01 | 88 | 1015.1 |
| 20260903090108 | 67 | 0 | 0.0 | 3.0 | 0.00 | 0.01 | 0.01 | 88 | 1015.1 |
| 20260903084559 | 68 | 0 | 0.0 | 5.0 | 0.00 | 0.01 | 0.01 | 88 | 1015.0 |
| 20260903083108 | 68 | 28 | 0.0 | 2.0 | 0.00 | 0.01 | 0.01 | 87 | 1015.2 |
| 20260903081559 | 68 | 0 | 0.0 | 1.0 | 0.01 | 0.01 | 0.01 | 87 | 1015.7 |
| 20260903080105 | 69 | 31 | 1.0 | 5.0 | 0.01 | 0.01 | 0.01 | 86 | 1015.7 |
| 20260903074611 | 70 | 15 | 0.0 | 2.0 | 0.01 | 0.01 | 0.01 | 86 | 1015.5 |
| 20260903073108 | 71 | 0 | 0.0 | 5.0 | 0.01 | 0.01 | 0.01 | 85 | 1015.7 |
| 20260903071604 | 71 | 154 | 1.0 | 5.0 | 0.00 | 0.00 | 0.00 | 85 | 1015.6 |
| 20260903070103 | 71 | 0 | 0.0 | 4.0 | 0.00 | 0.00 | 0.00 | 87 | 1015.1 |
| 20260903064609 | 72 | 0 | 0.0 | 4.0 | 0.00 | 0.00 | 0.00 | 90 | 1015.2 |
| 20260903063105 | 70 | 0 | 1.0 | 4.0 | 0.00 | 0.00 | 0.00 | 89 | 1015.3 |
| 20260903061602 | 70 | 0 | 0.0 | 0.0 | 0.00 | 0.00 | 0.00 | 86 | 1014.9 |
| 20260903060109 | 70 | 0 | 0.0 | 0.0 | 0.00 | 0.00 | 0.00 | 87 | 1014.6 |
| 20260903054623 | 71 | 0 | 0.0 | 1.0 | 0.00 | 0.00 | 0.00 | 88 | 1014.9 |
| 20260903053108 | 71 | 62 | 0.0 | 1.0 | 0.00 | 0.00 | 0.00 | 87 | 1015.0 |
| 20260903051559 | 71 | 0 | 0.0 | 1.0 | 0.00 | 0.00 | 0.00 | 87 | 1015.0 |
| 20260903044603 | 71 | 0 | 0.0 | 1.0 | 0.00 | 0.00 | 0.00 | 85 | 1015.0 |
| 20260903043100 | 72 | 62 | 0.0 | 1.0 | 0.00 | 0.00 | 0.00 | 84 | 1014.8 |
| 20260903041613 | 72 | 0 | 0.0 | 1.0 | 0.00 | 0.00 | 0.00 | 83 | 1014.5 |
| 20260903040126 | 73 | 0 | 0.0 | 1.0 | 0.00 | 0.00 | 0.00 | 82 | 1014.0 |
| 20260903034605 | 74 | 0 | 0.0 | 2.0 | 0.00 | 0.00 | 0.00 | 81 | 1013.8 |
| 20260903033102 | 75 | 0 | 0.0 | 2.0 | 0.00 | 0.00 | 0.00 | 80 | 1014.2 |
| 20260903031605 | 76 | 0 | 0.0 | 3.0 | 0.00 | 0.00 | 0.00 | 79 | 1014.6 |
| 20260903030106 | 77 | 5 | 0.0 | 4.0 | 0.00 | 0.00 | 0.00 | 77 | 1014.6 |
| 20260903024600 | 77 | 355 | 2.0 | 8.0 | 0.00 | 0.00 | 0.00 | 79 | 1014.7 |
| 20260903023104 | 76 | 355 | 2.0 | 9.0 | 0.00 | 0.00 | 0.00 | 82 | 1014.5 |
| 20260903021606 | 74 | 339 | 1.0 | 5.0 | 0.00 | 0.00 | 0.00 | 86 | 1014.7 |
| 20260903020106 | 74 | 0 | 0.0 | 0.0 | 0.00 | 0.00 | 0.00 | 85 | 1014.6 |
| 20260903014604 | 75 | 0 | 0.0 | 0.0 | 0.00 | 0.00 | 0.00 | 85 | 1014.9 |
| 20260903013106 | 75 | 0 | 0.0 | 0.0 | 0.00 | 0.00 | 0.00 | 84 | 1014.7 |
| 20260903011607 | 75 | 0 | 0.0 | 0.0 | 0.00 | 0.00 | 0.00 | 83 | 1014.7 |
| 20260903010110 | 76 | 0 | 0.0 | 0.0 | 0.00 | 0.00 | 0.00 | 81 | 1015.0 |
| 20260903004602 | 77 | 0 | 0.0 | 1.0 | 0.00 | 0.00 | 0.00 | 81 | 1014.7 |
| 20260903003108 | 78 | 0 | 0.0 | 1.0 | 0.00 | 0.00 | 0.00 | 80 | 1014.6 |
| 20260903001608 | 79 | 0 | 0.0 | 2.0 | 0.00 | 0.00 | 0.00 | 79 | 1014.4 |
| 20260903000104 | 81 | 42 | 0.0 | 2.0 | 0.00 | 0.00 | 0.00 | 78 | 1014.3 |
| 20260902234605 | 82 | 0 | 0.0 | 1.0 | 0.00 | 0.00 | 0.00 | 78 | 1014.5 |
| 20260902233058 | 83 | 0 | 0.0 | 1.0 | 0.00 | 0.00 | 0.00 | 77 | 1014.5 |
| 20260902231606 | 83 | 0 | 0.0 | 1.0 | 0.00 | 0.00 | 0.00 | 77 | 1014.7 |
| 20260902230124 | 84 | 0 | 0.0 | 2.0 | 0.00 | 0.00 | 0.00 | 76 | 1014.5 |
| 20260902224607 | 85 | 0 | 0.0 | 2.0 | 0.00 | 0.00 | 0.00 | 75 | 1014.3 |
| 20260902223102 | 87 | 42 | 0.0 | 2.0 | 0.00 | 0.00 | 0.00 | 72 | 1014.5 |
| 20260902221610 | 88 | 42 | 0.0 | 2.0 | 0.00 | 0.00 | 0.00 | 72 | 1014.6 |
| 20260902220110 | 88 | 0 | 0.0 | 3.0 | 0.00 | 0.00 | 0.00 | 70 | 1014.2 |
| 20260902214633 | 89 | 0 | 1.0 | 4.0 | 0.00 | 0.00 | 0.00 | 66 | 1014.3 |
| 20260902213106 | 90 | 360 | 1.0 | 8.0 | 0.00 | 0.00 | 0.00 | 63 | 1014.6 |
| 20260902211606 | 91 | 20 | 1.0 | 6.0 | 0.00 | 0.00 | 0.00 | 61 | 1014.7 |
| 20260902210135 | 91 | 5 | 2.0 | 6.0 | 0.00 | 0.00 | 0.00 | 62 | 1014.5 |
| 20260902204606 | 91 | 360 | 2.0 | 7.0 | 0.00 | 0.00 | 0.00 | 63 | 1014.7 |
| 20260902203106 | 91 | 14 | 3.0 | 9.0 | 0.00 | 0.00 | 0.00 | 63 | 1015.0 |
| 20260902201625 | 91 | 342 | 2.0 | 8.0 | 0.00 | 0.00 | 0.00 | 64 | 1015.2 |
| 20260902200112 | 90 | 59 | 2.0 | 9.0 | 0.00 | 0.00 | 0.00 | 64 | 1015.3 |
| 20260902194605 | 90 | 63 | 2.0 | 8.0 | 0.00 | 0.00 | 0.00 | 65 | 1015.3 |
| 20260902193104 | 90 | 351 | 2.0 | 7.0 | 0.00 | 0.00 | 0.00 | 65 | 1015.3 |
| 20260902191604 | 90 | 355 | 2.0 | 4.0 | 0.00 | 0.00 | 0.00 | 68 | 1015.6 |
| 20260902190127 | 89 | 63 | 1.0 | 11.0 | 0.00 | 0.00 | 0.00 | 69 | 1015.7 |
| 20260902184611 | 89 | 53 | 4.0 | 9.0 | 0.00 | 0.00 | 0.00 | 70 | 1015.9 |
| 20260902183109 | 89 | 24 | 4.0 | 10.0 | 0.00 | 0.00 | 0.00 | 70 | 1016.1 |
| 20260902181624 | 88 | 332 | 3.0 | 10.0 | 0.00 | 0.00 | 0.00 | 73 | 1016.3 |
| 20260902174605 | 87 | 334 | 3.0 | 8.0 | 0.00 | 0.00 | 0.00 | 76 | 1016.6 |
| 20260902173107 | 86 | 5 | 1.0 | 8.0 | 0.00 | 0.00 | 0.00 | 76 | 1016.8 |
| 20260902171621 | 86 | 5 | 1.0 | 5.0 | 0.00 | 0.00 | 0.00 | 80 | 1016.7 |
| 20260902170107 | 85 | 0 | 0.0 | 3.0 | 0.00 | 0.00 | 0.00 | 81 | 1016.9 |
| 20260902164605 | 84 | 309 | 0.0 | 2.0 | 0.00 | 0.00 | 0.00 | 80 | 1017.1 |
| 20260902163106 | 83 | 0 | 0.0 | 3.0 | 0.00 | 0.00 | 0.00 | 82 | 1017.2 |
| 20260902161605 | 81 | 279 | 0.0 | 2.0 | 0.00 | 0.00 | 0.00 | 86 | 1017.3 |
| 20260902160109 | 80 | 229 | 1.0 | 3.0 | 0.00 | 0.00 | 0.00 | 85 | 1017.4 |
| 20260902154604 | 80 | 0 | 0.0 | 2.0 | 0.00 | 0.00 | 0.00 | 88 | 1017.4 |
| 20260902153107 | 78 | 121 | 0.0 | 2.0 | 0.00 | 0.00 | 0.00 | 90 | 1017.3 |
| 20260902151604 | 76 | 0 | 0.0 | 2.0 | 0.00 | 0.00 | 0.00 | 91 | 1017.4 |
| 20260902150109 | 75 | 355 | 0.0 | 1.0 | 0.00 | 0.00 | 0.00 | 92 | 1017.5 |
| 20260902144607 | 75 | 0 | 0.0 | 4.0 | 0.00 | 0.00 | 0.00 | 93 | 1017.5 |